[[{"header":{"parameterUnit":"m.s-1","parameterCategory":1,"la1":30.2991,"la2":30.254,"lo1":-89.0895,"lo2":-89.0444,"dy":0.0017,"dx":0.0017,"nx":28,"ny":28,"refTime":"2024-05-07T03:00:00:Z","depth":0,"parameterNumber":2,"parameterNumberName":"U-component_of_WINDS"},"data":[0,0,0,0,0,0,0,0,0,0,0,0,0,0,0,0,0,0,0,0,0,0,0,0,0,0,0,0,0,0,0,0,0,0,0,0,0,0,0,0,0,0,0,0,0,0,0,0,0,0,0,0,0,0,0,0,0,0,-1.0207,-1.0206,0,-1.0139,-1.0139,-1.0138,-1.0125,-1.0125,-1.0126,-1.0126,-1.0053,-1.005,-1.0048,0,0,0,0,0,0,0,0,0,0,0,0,0,-1.0322,-1.032,-1.0207,-1.0206,-1.0206,-1.0139,-1.0138,-1.0138,-1.0125,-1.0125,-1.0126,-1.0126,-1.0053,-1.0051,-1.0048,0,0,0,0,0,0,0,0,0,0,0,0,0,-1.0265,-1.0319,-1.0207,-1.0191,-1.0189,-1.014,-1.0138,-1.0137,-1.0124,-1.0125,-1.0126,-1.0127,-1.0054,-1.0051,-1.0047,-1.0008,0,0,-1.0036,-1.0034,0,0,0,0,0,0,0,0,-1.0268,-1.0261,-1.0194,-1.0192,-1.019,-1.0141,-1.0152,-1.0094,-1.0124,-1.0149,-1.0126,-1.0127,-1.0081,-1.0075,-1.0061,-1.0004,-1.0001,-1.0036,-1.0033,-1.0032,-1.0031,0,0,0,0,0,0,0,-1.0272,-1.0263,-1.018,-1.0193,-1.0191,-1.0186,-1.0179,-1.0141,-1.0111,-1.0147,-1.0146,-1.0138,-1.008,-1.0064,-1.0059,-1.0,-1.0036,-1.0032,-1.003,-1.0029,-0.9907,-0.9906,0,0,0,0,0,0,-1.0279,-1.0267,-1.0182,-1.0178,-1.0232,-1.0183,-1.0175,-1.0156,-1.0112,-1.0106,-1.0137,-1.0138,-1.007,-1.0063,-1.0056,-1.0007,-1.0032,-1.0028,-1.0026,-0.9908,-0.9907,-0.9906,0,0,0,0,0,0,-1.0282,-1.0272,-1.0185,-1.0222,-1.0211,-1.0181,-1.0159,-1.0154,-1.0138,-1.0105,-1.0099,-1.0127,-1.0071,-1.0061,-1.002,-1.0004,-1.0027,-1.0023,-0.991,-0.9908,-0.9907,-0.9908,0,0,0,0,0,0,-1.0285,-1.0273,-1.0259,-1.0222,-1.0209,-1.0151,-1.0158,-1.0152,-1.0133,-1.0132,-1.0093,-1.0087,-1.0071,-1.0026,-1.0016,-0.9999,-1.002,-0.9911,-0.9909,-0.9907,-0.9909,-0.9906,-0.9904,0,0,0,0,0,-1.0289,-1.0261,-1.0258,-1.0248,-1.0191,-1.015,-1.0143,-1.0125,-1.0131,-1.0116,-1.0094,-1.0089,-1.0008,-1.0022,-1.0011,-0.9992,-0.9912,-0.9909,-0.9907,-0.991,-0.9907,-0.9904,0,0,0,0,0,0,-1.0295,-1.0256,-1.0252,-1.0211,-1.0184,-1.0148,-1.0128,-1.0122,-1.0092,-1.0093,-1.0071,-1.0062,-1.0022,-1.0003,-1.002,-0.9952,-0.996,-0.9955,-0.9965,-0.9962,-0.996,-0.9965,-1.0017,0,0,0,0,0,-1.0292,-1.0264,-1.0231,-1.0198,-1.0184,-1.0159,-1.0141,-1.013,-1.01,-1.0088,-1.0064,-1.0034,-1.0002,-0.9981,-0.995,-0.9906,-0.9897,-0.9888,-0.9886,-0.9884,-0.988,-0.9855,-0.985,-0.9899,-0.9899,-0.9899,0,0,-1.0284,-1.0259,-1.0243,-1.0198,-1.0176,-1.0146,-1.0149,-1.0118,-1.0095,-1.0083,-1.0043,-1.0024,-0.9989,-0.9947,-0.9927,-0.993,-0.9865,-0.9881,-0.988,-0.9877,-0.9852,-0.9848,-0.9843,-0.9897,-0.9897,-0.9898,0,0,-1.0255,-1.0234,-1.0204,-1.0182,-1.0149,-1.0132,-1.0125,-1.009,-1.0077,-1.0036,-1.0027,-0.9999,-0.9944,-0.992,-0.9901,-0.9863,-0.9856,-0.9853,-0.984,-0.9816,-0.9812,-0.9808,-0.9794,-0.9789,-0.9849,-0.9849,-0.9849,0,-1.025,-1.0205,-1.0189,-1.0158,-1.0138,-1.0127,-1.0096,-1.0075,-1.0033,-1.0019,-1.0023,-0.9954,-0.9931,-0.9882,-0.9873,-0.9858,-0.9848,-0.9857,-0.9814,-0.981,-0.9807,-0.9792,-0.9787,-0.9849,-0.9849,-0.9849,-0.9849,0,-1.02,-1.0169,-1.0149,-1.0109,-1.0087,-1.0056,-1.0034,-1.0013,-1.0004,-0.9986,-0.9944,-0.9916,-0.9878,-0.9866,-0.9856,-0.9815,-0.9818,-0.9819,-0.9826,-0.9802,-0.9788,-0.9783,-0.9849,-0.9849,-0.9849,-0.9849,0,0,-1.0172,-1.0124,-1.0117,-1.0098,-1.0061,-1.0037,-1.0005,-0.9969,-0.9951,-0.9923,-0.9894,-0.9848,-0.9849,-0.9827,-0.9814,-0.9793,-0.9763,-0.9796,-0.9794,-0.979,-0.9715,-0.9714,-0.9708,-0.9759,-0.9758,-0.9757,-0.9718,0,-1.0137,-1.0081,-1.0065,-1.0017,-0.9988,-0.9977,-0.9949,-0.9923,-0.9905,-0.9877,-0.9858,-0.9825,-0.9829,-0.9815,-0.9794,-0.9771,-0.9748,-0.9774,-0.9731,-0.973,-0.9739,-0.9701,-0.97,-0.9664,-0.9712,-0.9711,-0.9711,0,-1.009,-1.0061,-1.001,-0.9976,-0.9963,-0.9939,-0.9904,-0.9878,-0.9847,-0.9836,-0.9812,-0.9801,-0.9766,-0.9777,-0.9727,-0.9746,-0.9727,-0.9713,-0.9712,-0.9706,-0.9718,-0.9693,-0.9652,-0.9647,-0.9702,-0.9703,-0.9704,0,-1.0073,-1.0022,-0.9985,-0.9969,-0.9929,-0.9912,-0.9894,-0.9864,-0.9844,-0.9814,-0.98,-0.9766,-0.9746,-0.972,-0.97,-0.9709,-0.9651,-0.966,-0.964,-0.964,-0.9627,-0.9628,-0.9581,-0.9617,-0.9617,-0.9617,-0.9618,0,-1.0036,-1.0005,-0.9976,-0.9953,-0.9918,-0.99,-0.9865,-0.9846,-0.982,-0.9792,-0.9781,-0.9755,-0.9731,-0.9701,-0.9686,-0.9646,-0.9638,-0.9627,-0.9623,-0.9627,-0.9629,-0.9614,-0.9615,-0.9616,-0.9616,-0.9617,-0.9617,0,-1.0011,-0.9991,-0.9949,-0.9915,-0.9906,-0.9881,-0.9851,-0.9827,-0.981,-0.9775,-0.9766,-0.9738,-0.9703,-0.968,-0.9635,-0.9624,-0.9581,-0.9578,-0.9592,-0.9589,-0.957,-0.9571,-0.9511,-0.9502,-0.9545,-0.9545,-0.9544,0,-0.9988,-0.9964,-0.9927,-0.9908,-0.9891,-0.986,-0.984,-0.982,-0.9799,-0.9762,-0.9743,-0.9707,-0.9677,-0.9621,-0.9596,-0.9561,-0.9556,-0.9538,-0.9551,-0.9556,-0.9555,-0.9556,-0.9553,-0.9535,-0.9535,-0.9535,-0.9534,0,-0.9949,-0.994,-0.9911,-0.9878,-0.9854,-0.9827,-0.98,-0.9785,-0.9761,-0.9737,-0.9702,-0.9679,-0.9633,-0.9597,-0.956,-0.954,-0.9533,-0.9531,-0.9524,-0.9527,-0.9536,-0.953,-0.9584,-0.9532,-0.9532,-0.9532,-0.9532,-0.9532,-0.9923,-0.9901,-0.9872,-0.984,-0.9818,-0.9793,-0.9769,-0.9749,-0.9719,-0.9681,-0.9671,-0.9633,-0.9602,-0.9552,-0.9532,-0.9501,-0.9504,-0.9494,-0.9491,-0.9489,-0.9488,-0.9542,-0.9494,-0.9494,-0.9495,-0.9495,-0.9495,0,-0.9883,-0.9864,-0.9834,-0.9797,-0.9771,-0.9768,-0.9738,-0.9716,-0.9684,-0.9656,-0.9627,-0.9586,-0.9551,-0.9523,-0.9487,-0.9468,-0.9463,-0.9459,-0.9459,-0.9455,-0.9488,-0.9497,-0.9463,-0.9463,-0.9463,-0.9463,-0.9463,-0.9463,-0.9859,-0.9821,-0.9809,-0.9759,-0.974,-0.9704,-0.9687,-0.9663,-0.9641,-0.9595,-0.9567,-0.9549,-0.9521,-0.9483,-0.945,-0.9443,-0.943,-0.9426,-0.9418,-0.9449,-0.9453,-0.9456,-0.9464,-0.9423,-0.9423,-0.9386,-0.9386,-0.9386]},{"header":{"parameterUnit":"m.s-1","parameterCategory":1,"la1":30.2991,"la2":30.254,"lo1":-89.0895,"lo2":-89.0444,"dy":0.0017,"dx":0.0017,"nx":28,"ny":28,"refTime":"2024-05-07T03:00:00:Z","depth":0,"parameterNumber":3,"parameterNumberName":"V-component_of_WINDS"},"data":[0,0,0,0,0,0,0,0,0,0,0,0,0,0,0,0,0,0,0,0,0,0,0,0,0,0,0,0,0,0,0,0,0,0,0,0,0,0,0,0,0,0,0,0,0,0,0,0,0,0,0,0,0,0,0,0,0,0,6.8639,6.864,0,6.8709,6.871,6.8711,6.8689,6.8688,6.8686,6.8685,6.8749,6.8752,6.8755,0,0,0,0,0,0,0,0,0,0,0,0,0,6.8481,6.8484,6.8639,6.864,6.8641,6.8709,6.871,6.8711,6.8689,6.8688,6.8686,6.8684,6.8748,6.8752,6.8755,0,0,0,0,0,0,0,0,0,0,0,0,0,6.855,6.8485,6.8639,6.8639,6.8639,6.8709,6.871,6.8711,6.869,6.8688,6.8685,6.8683,6.8747,6.8751,6.8756,6.8828,0,0,6.877,6.8772,0,0,0,0,0,0,0,0,6.8546,6.8555,6.8638,6.8639,6.864,6.8688,6.8678,6.875,6.869,6.867,6.8685,6.8682,6.873,6.8736,6.8754,6.8831,6.8834,6.877,6.8773,6.8775,6.8776,0,0,0,0,0,0,0,6.8541,6.8552,6.8667,6.8639,6.864,6.8633,6.864,6.8691,6.8711,6.8672,6.8671,6.8679,6.873,6.8749,6.8755,6.8835,6.877,6.8774,6.8777,6.8779,6.8976,6.8978,0,0,0,0,0,0,6.8537,6.8549,6.8664,6.8669,6.8587,6.8637,6.8646,6.8675,6.8711,6.8714,6.8681,6.8678,6.8742,6.875,6.8757,6.8845,6.8775,6.8779,6.8782,6.8973,6.8976,6.8979,0,0,0,0,0,0,6.8533,6.8547,6.8662,6.8608,6.8622,6.8643,6.8675,6.8677,6.8696,6.8718,6.8721,6.8698,6.8741,6.8751,6.8811,6.8847,6.8781,6.8786,6.897,6.8974,6.8978,6.9021,0,0,0,0,0,0,6.8529,6.8546,6.8575,6.8609,6.8625,6.8717,6.8677,6.868,6.8705,6.8702,6.8734,6.8737,6.874,6.8805,6.8816,6.8852,6.8789,6.8967,6.8972,6.8977,6.9016,6.9025,6.9033,0,0,0,0,0,6.8523,6.8582,6.8577,6.8591,6.8662,6.8719,6.8728,6.8732,6.8708,6.8737,6.8751,6.8736,6.8841,6.8811,6.8824,6.8861,6.8965,6.8971,6.8976,6.9012,6.9023,6.9033,0,0,0,0,0,0,6.8548,6.8587,6.8581,6.8653,6.8683,6.8715,6.8751,6.8743,6.8779,6.8774,6.8775,6.8783,6.8845,6.8859,6.8825,6.8934,6.8899,6.8908,6.8922,6.8933,6.8942,6.8937,6.8793,0,0,0,0,0,6.8563,6.8608,6.8638,6.8698,6.8714,6.873,6.8755,6.8756,6.8786,6.8798,6.8816,6.8844,6.8883,6.8909,6.8946,6.9018,6.9025,6.905,6.9059,6.9066,6.9073,6.9113,6.9125,6.8997,6.8997,6.8997,0,0,6.8592,6.8618,6.8646,6.8704,6.8728,6.8772,6.8741,6.8789,6.8822,6.8804,6.8864,6.8878,6.8909,6.8976,6.9007,6.899,6.911,6.9073,6.9078,6.9082,6.912,6.9132,6.9142,6.9001,6.9,6.9,0,0,6.8668,6.8693,6.8747,6.8772,6.881,6.882,6.8833,6.8867,6.8877,6.8937,6.8926,6.8963,6.9031,6.9055,6.9075,6.9163,6.9151,6.9175,6.9219,6.9258,6.9268,6.9277,6.9309,6.932,6.9182,6.9182,6.9182,0,6.8699,6.8768,6.8775,6.8826,6.8852,6.8841,6.8896,6.8918,6.8965,6.8982,6.8963,6.905,6.907,6.9142,6.9164,6.9181,6.9195,6.9171,6.9267,6.9276,6.9284,6.9314,6.9326,6.9185,6.9184,6.9184,6.9184,0,6.8805,6.8853,6.8892,6.8941,6.8971,6.9023,6.9036,6.9065,6.9064,6.9077,6.9138,6.9162,6.9205,6.9223,6.922,6.9295,6.9284,6.9266,6.9231,6.9299,6.9327,6.9339,6.9189,6.9188,6.9187,6.9186,0,0,6.8897,6.8952,6.8966,6.8989,6.903,6.9066,6.9117,6.9162,6.9188,6.922,6.9262,6.9321,6.9306,6.9329,6.933,6.9364,6.9433,6.9342,6.9342,6.9358,6.9517,6.9531,6.9544,6.9426,6.9428,6.943,6.9515,0,6.8977,6.9071,6.9079,6.9162,6.9207,6.9199,6.9243,6.9273,6.9286,6.9324,6.9337,6.9379,6.9355,6.9369,6.9403,6.9418,6.9465,6.9411,6.9464,6.9465,6.9456,6.9559,6.9573,6.9653,6.9526,6.9528,6.9529,0,6.9083,6.9123,6.9211,6.9249,6.9267,6.9308,6.935,6.9387,6.942,6.9427,6.9455,6.9452,6.9503,6.9467,6.9538,6.9501,6.9523,6.9534,6.9537,6.9541,6.9501,6.9566,6.9678,6.969,6.9547,6.9545,6.9544,0,6.9143,6.9218,6.9281,6.93,6.9345,6.9374,6.9393,6.9424,6.9451,6.9487,6.9505,6.9546,6.9568,6.9599,6.9606,6.9579,6.9677,6.9641,6.9683,6.9683,6.9703,6.9702,6.982,6.9717,6.9717,6.9717,6.9717,0,6.9231,6.9286,6.9309,6.9347,6.9408,6.9417,6.9476,6.9493,6.9521,6.9562,6.9556,6.9594,6.9601,6.964,6.9646,6.9704,6.9713,6.972,6.972,6.972,6.972,6.9734,6.9729,6.972,6.9719,6.9719,6.9718,0,6.9307,6.9325,6.9394,6.9432,6.9442,6.9485,6.9517,6.9553,6.9566,6.9618,6.963,6.965,6.9696,6.9707,6.976,6.9764,6.9833,6.9828,6.9823,6.9822,6.9864,6.986,6.9995,7.0013,6.9899,6.99,6.9901,0,6.9363,6.9405,6.9449,6.9478,6.95,6.9545,6.9573,6.9584,6.9613,6.9655,6.9686,6.9732,6.977,6.9843,6.9861,6.9902,6.9898,6.9943,6.9904,6.9903,6.9899,6.9897,6.9901,6.995,6.9951,6.9952,6.9953,0,6.946,6.9467,6.951,6.9557,6.9592,6.9629,6.9663,6.9686,6.9701,6.9734,6.9783,6.9812,6.9869,6.9914,6.9956,6.9973,6.9966,6.9965,6.9977,6.9977,6.9973,6.9976,6.9843,6.9962,6.9961,6.996,6.996,6.9959,6.9528,6.9566,6.9603,6.9652,6.968,6.9713,6.975,6.9769,6.9811,6.986,6.9863,6.9915,6.9947,7.0004,7.0024,7.0064,7.005,7.0067,7.0071,7.0075,7.008,6.9967,7.0072,7.0071,7.0071,7.0071,7.0071,0,6.9625,6.9649,6.9694,6.9745,6.9783,6.9775,6.9814,6.9845,6.9893,6.9925,6.9963,7.0019,7.0063,7.0086,7.013,7.0158,7.0155,7.0169,7.0166,7.0171,7.0089,7.0075,7.017,7.017,7.017,7.017,7.017,7.017,6.968,6.9744,6.9756,6.9834,6.9857,6.9912,6.9934,6.9964,6.9991,7.0055,7.0093,7.0108,7.0136,7.0183,7.0223,7.0228,7.0244,7.026,7.0263,7.0186,7.0176,7.0167,7.0153,7.0263,7.0263,7.0341,7.0342,7.0343]}]]